When you browse on this site, cookies collect data to enhance your experience and personalize the content and advertising you see.
Visit our Privacy Policy to learn more. By continuing to use the site, you agree to this use of cookies and data.
  • In Sweden
  • List of Countries
  • For 7 days
  • Water Temperature
  • Weather Map
  • Weather Widgets
  • user-avatar
    Login

    Hourly Weather Teklovka

    Today, 16 September, Monday

    Time Temperature Precipitation Wind Pressure Humidity
    00:00 +9°C° 0.1 mm 2 mps 740 mmHg 96%
    01:00 +8°C° 0.1 mm 2 mps 740 mmHg 96%
    02:00 +8°C° 0 mm 2 mps 740 mmHg 96%
    03:00 +7°C° 0 mm 2 mps 740 mmHg 97%
    04:00 +8°C° 0 mm 1 mps 740 mmHg 98%
    05:00 +7°C° 0 mm 2 mps 740 mmHg 98%
    06:00 +7°C° 0 mm 2 mps 740 mmHg 98%
    07:00 +6°C° 0 mm 2 mps 740 mmHg 98%
    08:00 +8°C° 0 mm 3 mps 739 mmHg 92%
    09:00 +9°C° 0 mm 3 mps 739 mmHg 87%
    10:00 +10°C° 0 mm 4 mps 739 mmHg 81%
    11:00 +11°C° 0.2 mm 4 mps 739 mmHg 75%
    12:00 +12°C° 0.2 mm 4 mps 738 mmHg 69%
    13:00 +13°C° 0.2 mm 5 mps 738 mmHg 63%
    14:00 +12°C° 0.2 mm 5 mps 737 mmHg 66%
    15:00 +12°C° 0.2 mm 5 mps 737 mmHg 68%
    16:00 +12°C° 0.2 mm 5 mps 737 mmHg 70%
    17:00 +10°C° 0.2 mm 5 mps 736 mmHg 77%
    18:00 +10°C° 0.2 mm 4 mps 736 mmHg 83%
    19:00 +8°C° 0.2 mm 4 mps 736 mmHg 89%
    20:00 +8°C° 0.3 mm 5 mps 735 mmHg 91%
    21:00 +8°C° 0.3 mm 5 mps 734 mmHg 92%
    22:00 +7°C° 0.3 mm 6 mps 734 mmHg 94%
    23:00 +8°C° 0.8 mm 6 mps 733 mmHg 94%

    Tomorrow, 17 September, Tuesday

    Time Temperature Precipitation Wind Pressure Humidity
    00:00 +8°C° 0.8 mm 6 mps 733 mmHg 94%
    01:00 +8°C° 0.8 mm 6 mps 732 mmHg 95%
    02:00 +8°C° 0.8 mm 6 mps 732 mmHg 94%
    03:00 +8°C° 0.8 mm 6 mps 732 mmHg 93%
    04:00 +9°C° 0.8 mm 6 mps 732 mmHg 92%
    05:00 +8°C° 0.1 mm 6 mps 732 mmHg 93%
    06:00 +8°C° 0.1 mm 6 mps 732 mmHg 94%
    07:00 +8°C° 0.1 mm 5 mps 733 mmHg 94%
    08:00 +8°C° 0 mm 5 mps 733 mmHg 93%
    09:00 +8°C° 0 mm 5 mps 733 mmHg 92%
    10:00 +9°C° 0 mm 5 mps 733 mmHg 90%
    11:00 +9°C° 0.1 mm 5 mps 733 mmHg 87%
    12:00 +10°C° 0.1 mm 5 mps 734 mmHg 84%
    13:00 +10°C° 0.1 mm 6 mps 734 mmHg 81%
    14:00 +12°C° 0.1 mm 5 mps 734 mmHg 80%
    15:00 +12°C° 0.1 mm 5 mps 734 mmHg 78%
    16:00 +13°C° 0.1 mm 5 mps 734 mmHg 77%
    17:00 +12°C° 0.5 mm 4 mps 734 mmHg 81%
    18:00 +11°C° 0.5 mm 4 mps 733 mmHg 85%
    19:00 +10°C° 0.5 mm 4 mps 733 mmHg 89%
    20:00 +10°C° 0.3 mm 4 mps 733 mmHg 90%
    21:00 +8°C° 0.3 mm 4 mps 733 mmHg 91%
    22:00 +8°C° 0.3 mm 4 mps 733 mmHg 92%
    23:00 +8°C° 0.1 mm 4 mps 733 mmHg 93%

    Day after tomorrow, 18 September, Wednesday

    Time Temperature Precipitation Wind Pressure Humidity
    00:00 +7°C° 0.1 mm 4 mps 733 mmHg 94%
    01:00 +8°C° 0.1 mm 3 mps 733 mmHg 95%
    02:00 +8°C° 0.1 mm 3 mps 733 mmHg 95%
    03:00 +7°C° 0.1 mm 3 mps 734 mmHg 96%
    04:00 +7°C° 0.1 mm 3 mps 734 mmHg 96%
    05:00 +7°C° 0.1 mm 3 mps 734 mmHg 96%
    06:00 +7°C° 0.1 mm 3 mps 734 mmHg 96%
    07:00 +7°C° 0.1 mm 3 mps 734 mmHg 95%
    08:00 +7°C° 0 mm 4 mps 734 mmHg 90%
    09:00 +10°C° 0 mm 4 mps 734 mmHg 86%
    10:00 +11°C° 0 mm 4 mps 735 mmHg 81%
    11:00 +11°C° 0.2 mm 4 mps 735 mmHg 77%
    12:00 +12°C° 0.2 mm 5 mps 735 mmHg 73%
    13:00 +12°C° 0.2 mm 5 mps 734 mmHg 70%
    14:00 +12°C° 0.2 mm 5 mps 735 mmHg 70%
    15:00 +12°C° 0.2 mm 4 mps 735 mmHg 71%
    16:00 +12°C° 0.2 mm 4 mps 735 mmHg 72%
    17:00 +11°C° 0.1 mm 4 mps 735 mmHg 75%
    18:00 +10°C° 0.1 mm 3 mps 735 mmHg 79%
    19:00 +9°C° 0.1 mm 3 mps 735 mmHg 83%
    20:00 +8°C° 0.1 mm 3 mps 735 mmHg 85%
    21:00 +8°C° 0.1 mm 3 mps 735 mmHg 88%
    22:00 +7°C° 0.1 mm 3 mps 735 mmHg 90%
    23:00 +7°C° 0.3 mm 3 mps 734 mmHg 91%

    19 September, Thursday

    Time Temperature Precipitation Wind Pressure Humidity
    00:00 +7°C° 0.3 mm 3 mps 734 mmHg 93%
    01:00 +8°C° 0.3 mm 3 mps 734 mmHg 95%
    02:00 +8°C° 0.4 mm 3 mps 733 mmHg 95%
    03:00 +8°C° 0.4 mm 2 mps 733 mmHg 96%
    04:00 +8°C° 0.4 mm 2 mps 733 mmHg 96%
    05:00 +7°C° 1.8 mm 2 mps 731 mmHg 96%
    06:00 +7°C° 1.8 mm 3 mps 730 mmHg 97%
    07:00 +7°C° 1.8 mm 3 mps 728 mmHg 97%
    08:00 +6°C° 3.8 mm 4 mps 727 mmHg 97%
    09:00 +7°C° 3.8 mm 5 mps 725 mmHg 96%
    10:00 +7°C° 3.8 mm 5 mps 724 mmHg 96%
    11:00 +7°C° 4.7 mm 6 mps 723 mmHg 95%
    12:00 +7°C° 4.7 mm 6 mps 722 mmHg 93%
    13:00 +7°C° 4.7 mm 6 mps 721 mmHg 91%
    14:00 +6°C° 1.1 mm 7 mps 722 mmHg 91%
    15:00 +5°C° 1.1 mm 8 mps 723 mmHg 91%
    16:00 +5°C° 1.1 mm 9 mps 724 mmHg 91%
    17:00 +5°C° 0.1 mm 8 mps 726 mmHg 90%
    18:00 +5°C° 0.1 mm 6 mps 728 mmHg 90%
    19:00 +7°C° 0.1 mm 5 mps 730 mmHg 89%
    20:00 +6°C° 0 mm 5 mps 731 mmHg 91%
    21:00 +6°C° 0 mm 4 mps 732 mmHg 93%
    22:00 +5°C° 0 mm 4 mps 733 mmHg 94%
    23:00 +5°C° 0 mm 4 mps 734 mmHg 94%

    20 September, Friday

    Time Temperature Precipitation Wind Pressure Humidity
    00:00 +4°C° 0 mm 4 mps 734 mmHg 95%
    01:00 +4°C° 0 mm 3 mps 735 mmHg 95%
    02:00 +4°C° 0 mm 3 mps 736 mmHg 95%
    03:00 +3°C° 0 mm 3 mps 736 mmHg 96%
    04:00 +3°C° 0 mm 3 mps 737 mmHg 96%
    05:00 +3°C° 0 mm 3 mps 737 mmHg 95%
    06:00 +3°C° 0 mm 3 mps 738 mmHg 95%
    07:00 +3°C° 0 mm 3 mps 738 mmHg 94%
    08:00 +4°C° 0 mm 3 mps 739 mmHg 88%
    09:00 +5°C° 0 mm 3 mps 740 mmHg 83%
    10:00 +7°C° 0 mm 3 mps 740 mmHg 77%
    11:00 +8°C° 0 mm 3 mps 740 mmHg 72%
    12:00 +8°C° 0 mm 3 mps 741 mmHg 66%
    13:00 +9°C° 0 mm 3 mps 741 mmHg 61%
    14:00 +9°C° 0 mm 3 mps 741 mmHg 62%
    15:00 +9°C° 0 mm 3 mps 741 mmHg 63%
    16:00 +9°C° 0 mm 3 mps 741 mmHg 64%
    17:00 +8°C° 0 mm 2 mps 742 mmHg 70%
    18:00 +7°C° 0 mm 2 mps 742 mmHg 77%
    19:00 +6°C° 0 mm 1 mps 742 mmHg 83%
    20:00 +6°C° 0 mm 1 mps 742 mmHg 86%
    21:00 +6°C° 0 mm 1 mps 742 mmHg 89%
    22:00 +5°C° 0 mm 1 mps 742 mmHg 92%
    23:00 +4°C° 0 mm 2 mps 742 mmHg 93%

    21 September, Saturday

    Time Temperature Precipitation Wind Pressure Humidity
    00:00 +4°C° 0 mm 2 mps 743 mmHg 93%
    01:00 +4°C° 0 mm 2 mps 743 mmHg 94%
    02:00 +4°C° 0 mm 2 mps 743 mmHg 95%
    03:00 +3°C° 0 mm 2 mps 743 mmHg 97%
    04:00 +2°C° 0 mm 2 mps 743 mmHg 98%
    05:00 +2°C° 0 mm 2 mps 743 mmHg 97%
    06:00 +2°C° 0 mm 2 mps 743 mmHg 97%
    07:00 +3°C° 0 mm 1 mps 743 mmHg 97%
    08:00 +4°C° 0 mm 2 mps 743 mmHg 92%
    09:00 +5°C° 0 mm 2 mps 743 mmHg 86%
    10:00 +7°C° 0 mm 2 mps 743 mmHg 81%
    11:00 +7°C° 0.1 mm 2 mps 743 mmHg 81%
    12:00 +7°C° 0.1 mm 2 mps 742 mmHg 80%
    13:00 +7°C° 0.1 mm 2 mps 742 mmHg 80%
    14:00 +8°C° 0.1 mm 1 mps 742 mmHg 81%
    15:00 +8°C° 0.1 mm 1 mps 741 mmHg 83%
    16:00 +7°C° 0.1 mm 0 mps 741 mmHg 84%
    17:00 +6°C° 0.1 mm 0 mps 741 mmHg 87%
    18:00 +5°C° 0.1 mm 0 mps 741 mmHg 89%
    19:00 +5°C° 0.1 mm 0 mps 740 mmHg 92%
    20:00 +6°C° 0 mm 1 mps 740 mmHg 91%
    21:00 +6°C° 0 mm 1 mps 740 mmHg 91%
    22:00 +6°C° 0 mm 1 mps 740 mmHg 90%
    23:00 +5°C° 0 mm 1 mps 740 mmHg 91%
    Show more